Regional Weather Roundup
Issued by NWS Nashville, TN

Home | Current Version | Previous Version | Text Only | Print | Product List | Glossary On
Versions: 1 2 3 4 5 6 7 8 9 10 11 12 13 14 15 16 17 18 19 20 21 22 23 24 25 26 27 28 29 30 31 32 33 34 35 36 37 38 39 40 41 42 43 44 45 46 47 48 49 50
000
ASUS44 KOHX 290915
RWROHX
MIDDLE TENNESSEE HOURLY WEATHER ROUNDUP
NATIONAL WEATHER SERVICE NASHVILLE TN
300 AM CST SAT NOV 29 2014

NOTE: "FAIR" INDICATES FEW OR NO CLOUDS BELOW 12,000 FEET WITH
NO SIGNIFICANT WEATHER AND/OR OBSTRUCTIONS TO VISIBILITY.

* THESE REPORTS ARE NOT UNDER NWS QUALITY CONTROL AND MAY NOT
  REPORT WEATHER SUCH AS PRECIPITATION AND FOG.


TNZ005>011-023>034-057-059-062>066-078-080-291000
...NORTHERN MIDDLE TENNESSEE...

CITY           SKY/WX    TMP DP  RH WIND       PRES   REMARKS
CLARKSVILLE    MOCLDY    43  26  51 S12       30.08S
CROSSVILLE     CLEAR     39  16  39 SW7       30.15S WCI  34
GALLATIN         N/A     39  23  53 S7        30.14S WCI  34
DICKSON        CLEAR     39  25  56 S9        30.09F WCI  33
LEBANON        PTCLDY    40  21  46 S9        30.13R WCI  34
LIVINGSTON     CLEAR     49  17  28 SW16      30.13
NASHVILLE      PTCLDY    41  24  51 S10       30.14F
WEST NASHVILLE   N/A     37  21  52 CALM      30.13F
PORTLAND         N/A     36  21  55 S12       30.09F WCI  27
SPARTA         CLEAR     34  21  60 S3        30.15R
$$
TNZ056-058-060-061-075>077-079-093>097-291000
...SOUTHERN MIDDLE TENNESSEE...

CITY           SKY/WX    TMP DP  RH WIND       PRES   REMARKS
COLUMBIA       CLEAR     43  27  52 S9        30.11F
LEWISBURG      PTCLDY    40  23  50 S7        30.16R
MCMINNVILLE    CLEAR     39  21  48 CALM      30.16S
MURFREESBORO   CLEAR     42  22  45 S7        30.16S
SHELBYVILLE    CLEAR     37  23  56 S7        30.18S WCI  32
TULLAHOMA      CLEAR     37  19  48 S3        30.18S
WINCHESTER     CLEAR     37  21  52 SE6       30.19S WCI  33
$$


...KEY TO REMARKS...
VSB - VISIBILITY IN MILES
WCI - WIND CHILL INDEX
HX  - HEAT INDEX



USA.gov is the U.S. government's official web portal to all federal, state and local government web resources and services.